Location: Chvojnov
(49.4601°N, 15.2773°E)
Time: 22:27:53
(UTC+00:00)

Daily predictions for brighter satellites

Satellite Brightness Start Highest point End
(mag) Time Altitude Azimuth Time Altitude Azimuth Time Altitude Azimuth
USA 215 3.3 16:52:35 10° ENE 16:59:08 71° SE 17:05:39 10° SW
Cosmos 1850 Rocket 4.1 16:57:05 10° S 17:02:12 59° ESE 17:07:24 10° NNE
Aureole 1 4.4 16:59:14 10° SSW 17:02:20 86° WNW 17:06:02 10° NNE
Cosmos 2279 Rocket 4.0 16:56:19 10° N 17:02:37 80° E 17:08:53 10° SSE
Cosmos 2369 3.7 16:58:50 10° SSW 17:04:32 76° ESE 17:10:15 10° NNE
SL-08 RB Rocket 4.4 17:00:21 10° S 17:04:54 61° W 17:09:31 10° NNW
Cosmos 1733 Rocket 3.1 17:01:04 10° S 17:05:27 63° E 17:09:52 10° NNE
BREEZE-M DEB (TANK) 4.3 17:01:49 10° SW 17:06:05 51° SE 17:21:46 10° ENE
Cosmos 1844 Rocket 3.8 17:01:22 10° NNW 17:06:06 26° NE 17:10:49 10° E
COBE Rocket 4.1 17:04:00 10° SE 17:08:38 49° ENE 17:13:11 10° N
Cosmos 2221 Rocket 3.6 17:04:47 10° N 17:09:20 75° E 17:13:53 10° SSE
Cosmos 2278 4.0 17:05:01 10° S 17:10:24 46° ESE 17:15:48 10° NE
SL-16 R/B 3.2 17:07:06 10° SSE 17:11:32 24° ESE 17:15:59 10° NE
Cosmos 1570 Rocket 4.4 17:08:16 10° NNW 17:13:19 43° ENE 17:18:17 10° SE
PAYLOAD B 4.2 17:08:25 10° SSE 17:13:55 80° ENE 17:19:26 10° NNW
CZ-4B DEB 4.4 17:09:53 10° SSE 17:15:20 80° WSW 17:20:52 10° NNW
SKYMED 3 4.4 17:11:24 10° NNE 17:15:31 66° ESE 17:19:36 10° S
BREEZE-M DEB (TANK) 3.0 17:17:28 10° W 17:19:30 36° SSW 17:22:27 10° SE
Cosmos 2278 Rocket 4.4 17:19:04 10° NNE 17:19:47 10° NNE 17:20:31 10° NNE
COSMO-SKYMED 1 2.7 17:20:40 10° NNE 17:25:03 84° WNW 17:29:24 10° SSW
Cosmos 2263 Rocket 2.5 17:20:04 10° NNW 17:25:46 75° WSW 17:31:27 10° SSE
Meteor 1-24 Rocket 4.2 17:22:28 10° N 17:27:20 35° ENE 17:32:14 10° SE
SJ-6B 4.2 17:26:35 14° E 17:28:31 19° ENE 17:31:17 10° NNE
Spot 1 3.9 17:26:21 10° NNE 17:30:33 66° ESE 17:34:35 10° S
Cosmos 1437 Rocket 3.4 17:27:20 10° SSE 17:30:40 31° E 17:33:59 10° NNE
ASTEX 1 3.5 17:26:04 10° N 17:31:06 85° W 17:36:06 10° S
HJ-1C 3.2 17:29:23 10° SSE 17:32:27 57° ENE 17:35:31 10° N
Cosmos 1741 Rocket 4.1 17:28:24 10° SSW 17:33:41 83° WNW 17:38:59 10° NNE
Feng Yun 1-1 Rocket 4.3 17:30:03 10° SE 17:35:22 55° ENE 17:40:38 10° N
USA 267 3.6 17:28:56 10° SE 17:35:26 66° SW 17:41:59 10° WNW
IRIDIUM 104 4.3 17:30:43 10° S 17:35:52 64° E 17:41:03 10° N
Cosmos 1814 Rocket 4.0 17:31:56 10° NNW 17:37:14 89° ENE 17:42:25 10° SSE
SL-4 R/B 2.8 17:33:59 10° WNW 17:38:19 56° SSW 17:42:26 12° SE
Cosmos 1844 4.4 17:35:35 10° NNW 17:40:40 35° NE 17:44:18 17° ESE
Cosmos 2084 Rocket 3.5 17:37:04 10° NW 17:40:48 51° NE 17:43:23 19° ESE
Cosmos 2208 Rocket 4.2 17:36:38 10° NNW 17:41:58 58° ENE 17:47:18 10° SE
Cosmos 1805 4.1 17:38:23 10° SSW 17:42:11 53° WNW 17:46:01 10° N
Cosmos 2227 4.2 17:37:27 10° NNW 17:43:07 88° WSW 17:48:45 10° SSE
Cosmos 1242 Rocket 4.2 17:40:14 10° SW 17:43:32 36° WNW 17:46:50 10° N
IRIDIUM 114 4.2 17:39:47 10° S 17:44:59 76° E 17:50:13 10° N
Okean-O 3.6 17:42:56 18° ESE 17:45:19 28° ENE 17:49:06 10° N
Cosmos 489 Rocket 4.4 17:40:39 10° SSW 17:46:58 73° ESE 17:53:17 10° NNE
ISS -1.2 17:45:32 10° W 17:47:55 18° SW 17:50:17 10° S
CZ-4 R/B 1.4 17:43:52 10° SSE 17:48:01 71° ENE 17:52:11 10° N
Cosmos 1697 Rocket 4.3 17:44:06 10° WSW 17:49:13 35° NW 17:54:22 10° NNE
IGS 5A 4.2 17:48:12 20° ESE 17:50:15 31° ENE 17:53:55 10° N
Meteor 1-12 Rocket 4.3 17:45:18 10° S 17:51:16 72° E 17:57:17 10° NNE
CSL-04 Debris 4.5 17:46:19 10° SE 17:51:22 45° ENE 17:56:29 10° N
BREEZE M DEB (TANK) 3.6 17:46:16 10° SSW 17:51:47 25° SSE 17:53:02 21° SE
Cosmos 1908 Rocket 3.4 17:49:28 10° S 17:53:46 71° E 17:58:06 10° NNE
OBJECT-B 1.2 17:54:14 29° NE 17:54:14 29° NE 17:56:08 10° N
IRIDIUM 103 4.3 17:48:55 10° S 17:54:08 89° E 17:59:24 10° N
Meteor 2-21 4.5 17:48:22 10° S 17:54:25 85° W 18:00:30 10° N
Cosmos 2360 Rocket 3.1 17:51:37 10° SSE 17:56:08 25° ESE 18:00:40 10° NE
USA 81 4.3 17:52:45 10° N 17:57:50 45° ENE 18:02:39 11° SSE
Cosmos 1782 Rocket 3.7 17:57:50 10° SSE 18:01:59 47° E 18:06:12 10° NNE
Cosmos 1766 3.6 17:58:06 10° SSW 18:02:00 66° WNW 18:05:57 10° N
Cosmos 1025 Rocket 3.2 18:01:27 10° N 18:05:39 48° ENE 18:07:57 24° SE
YAOGAN 1 3.3 18:02:06 10° S 18:06:21 55° W 18:10:37 10° NNW
Cosmos 2026 Rocket 4.0 18:02:10 10° SSE 18:08:01 54° E 18:13:56 10° NNE
ATLAS 2AS CENTAUR R/B 4.3 18:02:35 10° NW 18:08:42 26° N 18:14:11 11° NE
Cosmos 968 Rocket 3.4 18:03:39 10° SSW 18:08:53 75° ESE 18:14:08 10° NNE
Okean O Rocket 2.1 18:05:51 10° S 18:10:10 62° WSW 18:14:32 10° NNW
Lacrosse 4 Rocket 1.8 18:09:57 10° S 18:13:45 38° ESE 18:13:56 38° ESE
Meteor 2-5 Rocket 3.6 18:09:47 10° NNW 18:15:21 88° WSW 18:20:54 10° S
Nadezhda 4 Rocket 4.3 18:09:39 10° SSW 18:15:58 73° WNW 18:22:18 10° N
CSL-04 Rocket 3.6 18:13:27 19° SE 18:17:18 63° ENE 18:22:41 10° N
Meteor 1-15 Rocket 4.2 18:12:08 10° SSW 18:17:42 85° WNW 18:23:19 10° N
Cosmos 1553 Rocket 4.3 18:12:18 10° N 18:18:27 48° ENE 18:21:53 25° SE
NOSS 3-4 (A) 4.4 18:15:03 10° NW 18:21:14 40° NNE 18:24:38 26° E
NOSS 3-4 (C) 4.5 18:15:10 10° NW 18:21:20 39° NNE 18:24:44 26° E
USA 186 1.7 18:22:41 60° SE 18:23:12 76° ENE 18:26:35 10° N
Cosmos 1726 4.3 18:21:10 10° SW 18:24:20 27° WNW 18:27:31 10° NNW
Cosmos 2322 Rocket 2.2 18:19:13 10° S 18:24:48 60° ESE 18:30:26 10° NE
Cosmos 2237 4.1 18:19:48 10° SSW 18:25:25 63° ESE 18:31:03 10° NE
Landsat 7 3.9 18:25:23 40° ESE 18:26:39 52° ENE 18:31:14 10° N
SPOT 1/Viking Rocket 4.2 18:27:16 33° ENE 18:27:41 33° ENE 18:32:15 10° N
Cosmos 1470 2.7 18:24:58 10° SSW 18:28:48 80° W 18:32:39 10° N
deb Chang Zheng 4 4.1 18:29:32 38° NE 18:29:32 38° NE 18:33:05 10° N
Cosmos 1975 Rocket 3.0 18:26:17 10° N 18:30:44 90° SW 18:33:09 26° S
Cosmos 1980 Rocket 3.9 18:26:19 10° WSW 18:31:21 33° NW 18:36:23 10° NNE
NOSS 3-3 (A) 4.2 18:27:27 10° S 18:32:27 37° ESE 18:32:27 37° ESE
NOSS 3-3 (C) 4.3 18:27:34 10° S 18:32:21 37° ESE 18:32:21 37° ESE
Ariane Rocket 4.2 18:36:14 26° NE 18:36:14 26° NE 18:39:59 10° N
CRYOSAT 2 4.3 18:34:18 15° S 18:38:23 90° WSW 18:43:19 10° N
Cosmos 1758 4.5 18:40:19 30° NNE 18:40:19 30° NNE 18:42:30 10° NNE
Cosmos 2292 Rocket 4.3 18:34:07 10° SSW 18:39:01 53° W 18:42:48 10° N
USA 215 3.7 18:36:54 16° NE 18:42:06 58° NNW 18:48:28 10° W
Aureole 1 Rocket 4.3 18:35:46 10° S 18:42:38 44° ESE 18:48:11 10° NE
IRS-1C Rocket 4.0 18:43:42 32° SSE 18:46:15 89° WSW 18:51:34 10° NNW
Cosmos 1844 Rocket 2.8 18:44:54 10° NNW 18:50:35 74° WSW 18:52:59 36° SSE
Landsat 5 3.8 18:50:31 10° N 18:55:01 73° WNW 18:59:26 10° SSW
SL-16 R/B 2.6 18:49:32 10° SW 18:55:10 65° WNW 19:00:50 10° NNE
Cosmos 1943 Rocket 4.2 18:54:11 10° N 18:56:44 13° NNE 18:57:29 13° NE
Cosmos 1092 Rocket 4.4 18:51:17 10° SSW 18:57:31 63° WNW 19:03:45 10° N
Resurs 01 Rocket 2.2 19:01:19 45° NNE 19:01:19 45° NNE 19:04:40 10° N
Terra 4.1 19:03:49 13° NNE 19:03:49 13° NNE 19:04:46 10° NNE
SJ-6B 3.8 19:02:07 37° SW 19:02:49 41° W 19:06:27 10° NNW
H-2A R/B 3.4 19:07:12 38° N 19:07:12 38° N 19:09:39 10° NNW
Cosmos 2278 Rocket 3.3 19:01:01 10° NNW 19:05:41 29° NE 19:05:41 29° NE
Resurs 1-3 4.1 19:11:26 53° SW 19:11:53 56° W 19:16:13 10° NNW
IRS-1A Rocket 4.2 19:15:25 71° ENE 19:15:30 71° ENE 19:21:18 10° NNW
MetOp-A 4.5 19:17:19 40° NNW 19:17:19 40° NNW 19:19:59 10° NNW
Cosmos 921 Rocket 4.2 19:12:42 10° NNW 19:15:36 36° N 19:15:36 36° N
Okean-O 3.9 19:20:29 31° SW 19:21:39 37° W 19:25:48 10° NNW
CZ-4 R/B 4.4 19:21:19 10° WSW 19:23:25 13° W 19:25:31 10° WNW
Cosmos 1486 Rocket 4.3 19:19:06 10° SSW 19:24:24 67° WNW 19:29:45 10° NNE
Cosmos 1844 4.4 19:19:39 10° NW 19:24:59 48° WSW 19:26:12 41° SSW
Cosmos 2266 Rocket 4.2 19:26:59 57° NE 19:26:59 57° NE 19:32:17 10° NNE
Cosmos 1655 Rocket 4.4 19:28:46 48° NE 19:28:46 48° NE 19:33:28 10° NNE
DNEPR-1 R/B 4.3 19:24:12 10° SW 19:29:01 66° NW 19:30:36 45° NNE
S3M 3.8 19:23:31 10° N 19:29:47 89° W 19:30:10 80° S
Cosmos 2333 Rocket 4.4 19:36:34 13° NNE 19:36:34 13° NNE 19:37:08 10° NNE
Cosmos 773 Rocket 4.2 19:26:08 10° NNW 19:31:00 70° WNW 19:31:00 70° WNW
Meteor 1-21 Rocket 4.2 19:26:24 10° NNW 19:31:34 77° NNW 19:31:34 77° NNW
Cosmos 2360 Rocket 2.6 19:34:08 10° SW 19:39:43 61° WNW 19:45:20 10° NNE
Lacrosse 4 Rocket 3.8 19:48:46 10° WSW 19:50:17 19° W 19:50:17 19° W
ATLAS 2AS CENTAUR R/B 3.5 19:54:48 10° NW 20:01:35 41° NNE 20:01:35 41° NNE
Cosmos 2322 Rocket 3.9 20:04:14 10° WSW 20:09:15 30° NW 20:14:17 10° NNE
NOSS 3-4 (A) 3.9 20:05:51 10° NW 20:12:04 71° W 20:12:04 71° W
NOSS 3-4 (C) 3.9 20:05:57 10° NW 20:12:10 71° W 20:12:10 71° W
Ariane Rocket 4.5 20:16:26 34° NW 20:16:26 34° NW 20:19:30 10° NNW
USA 215 3.9 20:24:15 46° N 20:24:33 46° N 20:30:43 10° WNW
USA 281 3.8 20:27:40 53° NNW 20:27:40 53° NNW 20:32:33 10° NNW
Resurs 01 Rocket 4.4 20:38:53 15° WNW 20:38:53 15° WNW 20:40:12 10° NW
Terra 4.3 20:42:43 17° NNW 20:42:43 17° NNW 20:43:50 10° NNW
Cosmos 1943 Rocket 4.1 20:36:43 10° NNW 20:38:59 23° N 20:38:59 23° N
Cosmos 2278 Rocket 3.9 20:44:51 10° NNW 20:47:32 28° NW 20:47:32 28° NW
Cosmos 2369 Rocket 4.4 20:56:40 10° NNW 20:58:48 19° N 20:58:48 19° N
Cosmos 2333 Rocket 4.4 21:18:31 20° N 21:18:31 20° N 21:21:00 10° NNE
ATLAS 2AS CENTAUR R/B 4.4 21:45:59 10° NW 21:49:00 27° NW 21:49:00 27° NW
